FW9870 Weather Reports


time (UTC)temp
C
wind
direction
speed
KPH
gust
KPH
rain 1hr
cm
rain 24hr
cm
rain mn
cm
humidity
%
barometer
mb
20260509132024 11 212 6.4 16.1 0.00 0.05 0.00 80 1007.7
20260509131540 10 185 6.4 16.1 0.00 0.05 0.00 80 1007.9
20260509131023 10 196 6.4 16.1 0.00 0.05 0.00 79 1007.9
20260509130524 10 190 8.0 16.1 0.00 0.05 0.00 79 1007.7
20260509130040 10 188 11.3 16.1 0.00 0.05 0.00 79 1007.9
20260509125526 10 188 6.4 12.9 0.00 0.05 0.00 79 1007.7
20260509125023 10 214 8.0 16.1 0.00 0.05 0.00 79 1007.7
20260509124543 10 182 9.7 16.1 0.00 0.05 0.00 79 1007.7
20260509124024 10 214 8.0 19.3 0.00 0.05 0.00 79 1007.9
20260509123523 9 215 9.7 19.3 0.00 0.05 0.00 79 1007.8
20260509123048 9 234 4.8 16.1 0.00 0.05 0.00 79 1007.9
20260509122523 8 209 4.8 16.1 0.00 0.05 0.00 79 1007.8
20260509122023 8 198 3.2 11.3 0.00 0.05 0.00 80 1007.8
20260509121541 8 185 4.8 11.3 0.00 0.05 0.00 79 1007.9
20260509121023 8 180 6.4 11.3 0.00 0.05 0.00 79 1007.9
20260509120523 7 175 6.4 11.3 0.00 0.05 0.00 79 1007.8
20260509120045 7 159 4.8 12.9 0.00 0.05 0.00 79 1007.8
20260509115522 7 170 6.4 12.9 0.00 0.05 0.00 79 1007.9
20260509115024 7 197 3.2 9.7 0.00 0.05 0.00 79 1008.0
20260509114542 7 197 3.2 9.7 0.00 0.05 0.00 79 1008.0
20260509114025 7 190 4.8 9.7 0.00 0.05 0.00 79 1007.9
20260509113525 6 200 3.2 9.7 0.00 0.05 0.00 80 1007.8
20260509113041 6 198 1.6 9.7 0.00 0.05 0.00 80 1007.9
20260509112523 6 195 3.2 9.7 0.00 0.05 0.00 79 1008.0
20260509112023 6 202 4.8 9.7 0.00 0.05 0.00 79 1008.0
20260509111540 6 198 4.8 9.7 0.00 0.05 0.00 79 1007.9
20260509111023 6 194 4.8 11.3 0.00 0.05 0.00 79 1007.8
20260509110524 6 208 4.8 11.3 0.00 0.05 0.00 79 1007.8
20260509110041 6 194 3.2 8.0 0.00 0.05 0.00 80 1007.8
20260509105523 6 217 3.2 8.0 0.00 0.05 0.00 80 1007.9
20260509105023 6 191 4.8 8.0 0.00 0.05 0.00 80 1008.0
20260509104539 6 200 3.2 11.3 0.00 0.05 0.00 80 1007.9
20260509104024 6 199 3.2 11.3 0.00 0.05 0.00 80 1008.0
20260509103524 6 192 4.8 11.3 0.00 0.05 0.00 80 1007.9
20260509103048 5 189 4.8 12.9 0.00 0.05 0.00 80 1007.8
20260509102524 5 198 4.8 12.9 0.00 0.05 0.00 80 1007.8
20260509102024 5 180 6.4 11.3 0.00 0.05 0.00 80 1007.8
20260509101542 5 198 4.8 11.3 0.00 0.05 0.00 81 1007.9
20260509101023 5 194 6.4 11.3 0.00 0.05 0.00 81 1007.9
20260509100522 5 207 4.8 12.9 0.00 0.05 0.00 80 1007.9
20260509100049 5 197 4.8 12.9 0.00 0.05 0.00 80 1007.9
20260509095526 5 216 3.2 6.4 0.00 0.05 0.00 80 1007.8
20260509095022 5 196 3.2 11.3 0.00 0.05 0.00 79 1007.8
20260509094542 5 199 4.8 11.3 0.00 0.05 0.00 79 1007.8
20260509094024 5 202 3.2 11.3 0.00 0.05 0.00 79 1007.8
20260509093523 5 192 3.2 6.4 0.00 0.05 0.00 78 1007.8
20260509093044 5 217 3.2 9.7 0.00 0.05 0.00 78 1007.8
20260509092524 5 208 3.2 9.7 0.00 0.05 0.00 77 1007.8
20260509092026 5 209 3.2 9.7 0.00 0.05 0.00 77 1007.7
20260509091540 5 188 4.8 9.7 0.00 0.05 0.00 77 1007.8
20260509091023 5 186 1.6 8.0 0.00 0.05 0.00 77 1007.8
20260509090523 5 198 3.2 8.0 0.00 0.05 0.00 76 1007.8
20260509090052 5 202 3.2 8.0 0.00 0.05 0.00 76 1008.0
20260509085522 5 210 3.2 11.3 0.00 0.05 0.00 76 1008.0
20260509085023 5 203 4.8 11.3 0.00 0.05 0.00 76 1008.0
20260509084541 5 167 6.4 11.3 0.00 0.05 0.00 77 1008.1
20260509084028 5 221 3.2 8.0 0.00 0.05 0.00 78 1008.1
20260509083523 5 198 3.2 8.0 0.00 0.05 0.00 79 1008.2
20260509083043 4 202 3.2 6.4 0.00 0.05 0.00 80 1008.3
20260509082522 4 206 1.6 8.0 0.00 0.05 0.00 81 1008.4
20260509082023 4 207 3.2 8.0 0.00 0.05 0.00 81 1008.4
20260509081542 4 207 3.2 8.0 0.00 0.05 0.00 81 1008.5
20260509081023 4 197 3.2 8.0 0.00 0.05 0.00 81 1008.5
20260509080523 4 197 3.2 8.0 0.00 0.05 0.00 82 1008.5
20260509080042 4 208 3.2 8.0 0.00 0.05 0.00 83 1008.5
20260509075523 3 205 3.2 8.0 0.00 0.05 0.00 85 1008.4
20260509075023 3 200 3.2 8.0 0.00 0.05 0.00 86 1008.6
20260509074547 3 202 3.2 6.4 0.00 0.05 0.00 89 1008.6
20260509074027 2 0 0.0 0.0 0.00 0.05 0.00 90 1008.7
20260509073526 2 0 0.0 0.0 0.00 0.05 0.00 90 1008.7
20260509073043 2 0 0.0 0.0 0.00 0.05 0.00 90 1008.7
20260509072523 2 0 0.0 0.0 0.00 0.05 0.00 90 1008.8
20260509072024 1 0 0.0 0.0 0.00 0.05 0.00 89 1008.7
20260509071546 2 0 0.0 0.0 0.00 0.05 0.00 90 1008.8
20260509071023 1 0 0.0 0.0 0.00 0.05 0.00 89 1008.8
20260509070523 2 0 0.0 0.0 0.00 0.05 0.00 89 1008.9
20260509070044 2 0 0.0 0.0 0.00 0.05 0.00 89 1008.8
20260509065537 2 0 0.0 0.0 0.00 0.05 0.00 90 1008.9
20260509065023 2 0 0.0 0.0 0.00 0.05 0.00 90 1009.0
20260509064541 2 0 0.0 0.0 0.00 0.05 0.00 90 1009.0
20260509064023 2 0 0.0 0.0 0.00 0.05 0.00 90 1009.0
20260509063527 2 0 0.0 0.0 0.00 0.05 0.00 90 1009.1
20260509063041 2 0 0.0 0.0 0.00 0.05 0.00 90 1009.2
20260509062524 2 0 0.0 0.0 0.00 0.05 0.00 90 1009.1
20260509062024 2 0 0.0 0.0 0.00 0.05 0.00 90 1009.2
20260509061543 2 0 0.0 0.0 0.00 0.05 0.00 90 1009.3
20260509061027 2 0 0.0 0.0 0.00 0.05 0.00 90 1009.3
20260509060523 2 0 0.0 0.0 0.00 0.05 0.00 90 1009.4
20260509060048 2 0 0.0 0.0 0.00 0.05 0.00 90 1009.5
20260509055527 2 0 0.0 0.0 0.00 0.10 0.00 90 1009.5
20260509055027 2 0 0.0 0.0 0.00 0.10 0.00 90 1009.5
20260509054558 2 0 0.0 0.0 0.00 0.10 0.00 90 1009.7
20260509054023 2 0 0.0 0.0 0.00 0.10 0.00 90 1009.7
20260509053523 2 0 0.0 0.0 0.00 0.10 0.00 90 1009.7
20260509053042 2 0 0.0 0.0 0.00 0.10 0.00 90 1009.8
20260509052524 2 0 0.0 0.0 0.00 0.10 0.00 90 1009.8
20260509052023 2 0 0.0 0.0 0.00 0.10 0.00 90 1009.8
20260509051542 1 0 0.0 0.0 0.00 0.10 0.00 90 1009.9
20260509051023 1 0 0.0 0.0 0.00 0.10 0.00 90 1009.9
20260509050523 1 0 0.0 0.0 0.00 0.10 0.00 90 1009.9
20260509050051 1 0 0.0 0.0 0.00 0.10 0.00 90 1009.9
20260509045523 2 0 0.0 0.0 0.00 0.18 0.00 90 1009.8
20260509045023 2 0 0.0 0.0 0.00 0.18 0.00 90 1009.9
20260509044537 2 0 0.0 0.0 0.00 0.18 0.00 89 1010.0
20260509044026 2 0 0.0 0.0 0.00 0.18 0.00 89 1010.1
20260509043527 2 0 0.0 0.0 0.00 0.18 0.00 89 1010.1
20260509043053 2 0 0.0 0.0 0.00 0.18 0.00 89 1010.1
20260509042523 2 0 0.0 0.0 0.00 0.18 0.00 89 1010.3
20260509042027 2 0 0.0 0.0 0.00 0.18 0.00 89 1010.3
20260509041542 2 0 0.0 0.0 0.00 0.18 0.00 89 1010.4
20260509041023 2 0 0.0 0.0 0.00 0.18 0.00 89 1010.3
20260509040523 2 0 0.0 0.0 0.00 0.18 0.00 89 1010.3
20260509040048 2 0 0.0 0.0 0.00 0.18 0.00 89 1010.2
20260509035527 2 0 0.0 0.0 0.00 0.18 0.18 89 1010.2
20260509035024 2 0 0.0 0.0 0.00 0.18 0.18 89 1010.3
20260509034541 2 0 0.0 0.0 0.00 0.18 0.18 88 1010.3
20260509034026 2 0 0.0 0.0 0.00 0.18 0.18 88 1010.3
20260509033523 2 0 0.0 0.0 0.00 0.18 0.18 88 1010.3
20260509033040 2 0 0.0 0.0 0.00 0.18 0.18 88 1010.3
20260509032523 2 0 0.0 0.0 0.00 0.18 0.18 88 1010.4
20260509032023 2 0 0.0 0.0 0.00 0.18 0.18 88 1010.4
20260509031549 2 0 0.0 0.0 0.00 0.18 0.18 88 1010.4
20260509031023 2 0 0.0 0.0 0.00 0.18 0.18 87 1010.5
20260509030523 2 0 0.0 0.0 0.00 0.18 0.18 87 1010.4
20260509030045 3 0 0.0 0.0 0.00 0.18 0.18 87 1010.6
20260509025522 3 0 0.0 0.0 0.00 0.18 0.18 87 1010.6
20260509025022 3 0 0.0 0.0 0.00 0.18 0.18 87 1010.5
20260509024542 3 0 0.0 0.0 0.00 0.18 0.18 86 1010.4
20260509024023 3 0 0.0 0.0 0.00 0.18 0.18 86 1010.4
20260509023522 3 0 0.0 0.0 0.00 0.18 0.18 86 1010.4
20260509023041 3 0 0.0 0.0 0.00 0.18 0.18 86 1010.5
20260509022523 3 0 0.0 0.0 0.00 0.18 0.18 86 1010.4
20260509022023 3 0 0.0 0.0 0.00 0.18 0.18 85 1010.4
20260509021540 3 0 0.0 0.0 0.00 0.18 0.18 85 1010.4
20260509021024 3 0 0.0 0.0 0.00 0.18 0.18 85 1010.5
20260509020521 4 0 0.0 0.0 0.00 0.18 0.18 84 1010.6
20260509020040 4 0 0.0 0.0 0.00 0.18 0.18 84 1010.6
20260509015523 4 0 0.0 0.0 0.00 0.18 0.18 84 1010.6
20260509015023 4 0 0.0 0.0 0.00 0.18 0.18 84 1010.6
20260509014535 5 0 0.0 0.0 0.00 0.18 0.18 83 1010.5
20260509014023 5 0 0.0 0.0 0.00 0.18 0.18 82 1010.7
20260509013523 5 0 0.0 0.0 0.00 0.18 0.18 82 1010.7
20260509013045 5 0 0.0 0.0 0.00 0.18 0.18 81 1010.6
20260509012521 5 0 0.0 0.0 0.00 0.18 0.18 81 1010.6
20260509012023 5 0 0.0 0.0 0.00 0.18 0.18 80 1010.4
20260509011547 5 0 0.0 0.0 0.00 0.18 0.18 80 1010.2
20260509011025 6 0 0.0 0.0 0.00 0.18 0.18 79 1010.1
20260509010523 6 0 0.0 0.0 0.00 0.18 0.18 78 1010.1
20260509010044 6 0 0.0 0.0 0.00 0.18 0.18 77 1010.0
20260509005523 6 0 0.0 0.0 0.00 0.18 0.18 77 1010.1
20260509005023 6 0 0.0 0.0 0.00 0.18 0.18 76 1010.0
20260509004548 7 0 0.0 0.0 0.00 0.18 0.18 76 1009.9
20260509004023 7 0 0.0 0.0 0.00 0.18 0.18 75 1009.8
20260509003523 7 0 0.0 0.0 0.00 0.18 0.18 74 1009.8
20260509003036 7 0 0.0 0.0 0.00 0.18 0.18 73 1009.8
20260509002526 8 0 0.0 0.0 0.00 0.18 0.18 73 1009.7
20260509002026 8 0 0.0 0.0 0.00 0.18 0.18 72 1009.8
20260509001541 8 0 0.0 0.0 0.00 0.18 0.18 69 1009.7
20260509001022 8 0 0.0 0.0 0.00 0.18 0.18 66 1009.7
20260509000522 9 0 0.0 0.0 0.00 0.18 0.18 65 1009.7
20260509000053 9 0 0.0 0.0 0.00 0.18 0.18 66 1009.7
20260508235523 9 0 0.0 0.0 0.00 0.18 0.18 65 1009.7
20260508235024 10 0 0.0 0.0 0.00 0.18 0.18 64 1009.8
20260508234541 10 0 0.0 0.0 0.00 0.18 0.18 63 1009.8
20260508234023 10 0 0.0 0.0 0.00 0.18 0.18 60 1009.7
20260508233523 10 0 0.0 4.8 0.00 0.18 0.18 60 1009.6
20260508233040 10 0 0.0 4.8 0.00 0.18 0.18 59 1009.6
20260508232523 10 63 1.6 4.8 0.00 0.18 0.18 62 1009.6
20260508232020 10 62 1.6 4.8 0.00 0.18 0.18 63 1009.6
20260508231548 10 62 1.6 6.4 0.00 0.18 0.18 62 1009.6
20260508231024 10 57 1.6 6.4 0.00 0.18 0.18 63 1009.8
20260508230526 10 57 3.2 6.4 0.00 0.18 0.18 60 1009.8
20260508230041 10 77 3.2 8.0 0.00 0.18 0.18 61 1009.7
20260508225520 10 79 3.2 8.0 0.00 0.18 0.18 61 1009.7
20260508225026 10 57 3.2 4.8 0.00 0.18 0.18 61 1009.8
20260508224541 10 57 3.2 6.4 0.00 0.18 0.18 61 1009.7
20260508224022 11 57 3.2 8.0 0.00 0.18 0.18 62 1009.7
20260508223523 11 54 3.2 8.0 0.00 0.18 0.18 62 1009.7
20260508223041 11 61 4.8 6.4 0.00 0.18 0.18 62 1009.8
20260508222523 11 49 3.2 6.4 0.00 0.18 0.18 61 1009.8
20260508222023 11 61 3.2 6.4 0.00 0.18 0.18 62 1009.9
20260508221540 11 59 3.2 4.8 0.00 0.18 0.18 60 1009.8
20260508221023 10 67 1.6 4.8 0.00 0.18 0.18 62 1009.9
20260508220522 10 68 1.6 8.0 0.00 0.18 0.18 64 1009.9
20260508220045 10 68 3.2 8.0 0.00 0.18 0.18 64 1009.9
20260508215523 10 81 4.8 11.3 0.00 0.18 0.18 63 1010.1
20260508215023 10 86 6.4 11.3 0.00 0.18 0.18 64 1010.0
20260508214542 10 61 3.2 6.4 0.00 0.18 0.18 65 1010.0
20260508214022 10 51 3.2 6.4 0.00 0.18 0.18 68 1010.0
20260508213522 10 60 1.6 8.0 0.00 0.18 0.18 68 1009.9
20260508213047 10 53 3.2 9.7 0.00 0.18 0.18 68 1010.0
20260508212523 10 81 4.8 11.3 0.00 0.18 0.18 69 1010.0
20260508212026 9 90 6.4 11.3 0.00 0.18 0.18 68 1010.1
20260508211543 9 91 4.8 9.7 0.00 0.18 0.18 68 1010.1
20260508211024 9 63 3.2 8.0 0.00 0.18 0.18 70 1010.1
20260508210520 9 67 4.8 9.7 0.00 0.18 0.18 69 1010.2
20260508210048 9 43 4.8 9.7 0.00 0.18 0.18 69 1010.2
20260508205519 8 55 4.8 9.7 0.00 0.18 0.18 70 1010.2
20260508205023 9 51 4.8 11.3 0.00 0.18 0.18 70 1010.4
20260508204542 9 51 6.4 11.3 0.00 0.18 0.18 70 1010.3
20260508204022 9 36 6.4 11.3 0.00 0.18 0.18 72 1010.5
20260508203522 9 43 6.4 12.9 0.00 0.18 0.18 71 1010.6
20260508203049 9 88 4.8 12.9 0.00 0.18 0.18 71 1010.6
20260508202526 8 67 6.4 9.7 0.00 0.18 0.18 70 1010.7
20260508202023 9 37 6.4 9.7 0.00 0.18 0.18 69 1010.7
20260508201541 9 44 4.8 9.7 0.00 0.18 0.18 70 1010.7
20260508201023 9 42 4.8 9.7 0.00 0.18 0.18 68 1010.7
20260508200523 8 73 4.8 14.5 0.00 0.18 0.18 70 1010.7
20260508200052 8 57 4.8 14.5 0.00 0.18 0.18 71 1010.8
20260508195522 8 69 6.4 14.5 0.00 0.18 0.18 70 1010.8
20260508195023 8 55 4.8 11.3 0.00 0.18 0.18 69 1010.9
20260508194540 8 48 4.8 11.3 0.00 0.18 0.18 69 1011.0
20260508194023 8 51 6.4 11.3 0.00 0.18 0.18 70 1011.2
20260508193519 8 360 6.4 14.5 0.00 0.18 0.18 69 1011.3
20260508193041 8 69 8.0 14.5 0.00 0.18 0.18 69 1011.2
20260508192519 8 58 6.4 14.5 0.00 0.18 0.18 68 1011.3
20260508192023 8 61 4.8 12.9 0.00 0.18 0.18 69 1011.4
20260508191541 8 31 4.8 12.9 0.00 0.18 0.18 69 1011.3
20260508191023 8 15 6.4 14.5 0.00 0.18 0.18 69 1011.4
20260508190523 8 56 6.4 14.5 0.00 0.18 0.18 67 1011.3
20260508190051 8 82 6.4 14.5 0.00 0.18 0.18 69 1011.3
20260508185523 8 61 6.4 12.9 0.00 0.18 0.18 69 1011.3
20260508185023 8 103 6.4 12.9 0.00 0.18 0.18 69 1011.2
20260508184542 8 41 4.8 14.5 0.00 0.18 0.18 70 1011.3
20260508184022 8 49 6.4 14.5 0.00 0.18 0.18 72 1011.3
20260508183526 8 18 6.4 14.5 0.00 0.18 0.18 70 1011.3
20260508183041 8 335 6.4 16.1 0.00 0.18 0.18 71 1011.4
20260508182523 8 344 8.0 16.1 0.00 0.18 0.18 74 1011.5
20260508182029 8 36 9.7 16.1 0.00 0.18 0.18 73 1011.5
20260508181605 8 66 8.0 14.5 0.00 0.18 0.18 74 1011.5
20260508181025 8 74 6.4 14.5 0.00 0.18 0.18 74 1011.4
20260508180521 8 57 4.8 16.1 0.00 0.18 0.18 74 1011.4
20260508180050 8 53 6.4 16.1 0.00 0.18 0.18 74 1011.4
20260508175521 8 71 8.0 16.1 0.00 0.18 0.18 73 1011.4
20260508175021 8 80 8.0 16.1 0.00 0.18 0.18 72 1011.4
20260508174538 8 84 3.2 16.1 0.00 0.18 0.18 73 1011.4
20260508174018 8 9 4.8 16.1 0.00 0.18 0.18 72 1011.5
20260508173518 9 60 3.2 11.3 0.00 0.18 0.18 73 1011.5
20260508173047 8 11 4.8 14.5 0.00 0.18 0.18 72 1011.5
20260508172521 8 38 4.8 14.5 0.00 0.18 0.18 72 1011.5
20260508172022 9 329 4.8 14.5 0.00 0.18 0.18 71 1011.6
20260508171542 10 16 6.4 14.5 0.00 0.18 0.18 69 1011.7
20260508171017 10 348 6.4 12.9 0.00 0.18 0.18 69 1011.7
20260508170522 10 327 3.2 9.7 0.00 0.18 0.18 70 1011.8
20260508170041 9 289 1.6 8.0 0.00 0.18 0.18 67 1011.9
20260508165521 9 197 4.8 9.7 0.00 0.18 0.18 68 1011.9
20260508165026 8 0 1.6 14.5 0.00 0.18 0.18 68 1011.8
20260508164543 8 347 3.2 14.5 0.00 0.18 0.18 68 1011.9
20260508164020 8 10 6.4 14.5 0.00 0.18 0.18 67 1011.9
20260508163521 9 339 3.2 12.9 0.00 0.18 0.18 71 1012.0
20260508163040 8 289 4.8 17.7 0.00 0.18 0.18 71 1012.1
20260508162520 8 350 8.0 17.7 0.00 0.18 0.18 70 1012.1
20260508162024 8 322 8.0 14.5 0.00 0.18 0.18 71 1012.1
20260508161537 8 40 3.2 14.5 0.00 0.18 0.18 75 1012.0
20260508161020 8 334 3.2 12.9 0.00 0.18 0.18 78 1012.1
20260508160520 8 35 4.8 16.1 0.00 0.18 0.18 78 1012.0
20260508160039 7 341 8.0 16.1 0.00 0.18 0.18 77 1012.2
20260508155522 8 5 6.4 17.7 0.00 0.18 0.18 77 1012.1
20260508155020 8 15 6.4 17.7 0.00 0.18 0.18 77 1012.1
20260508154551 8 19 6.4 14.5 0.00 0.18 0.18 74 1012.1
20260508154021 8 346 6.4 12.9 0.00 0.18 0.18 74 1012.0
20260508153521 8 352 4.8 9.7 0.00 0.18 0.18 75 1012.0
20260508153041 8 296 4.8 9.7 0.00 0.18 0.18 76 1011.9
20260508152521 8 0 1.6 11.3 0.00 0.18 0.18 78 1011.8
20260508152024 8 311 6.4 11.3 0.00 0.18 0.18 77 1011.9
20260508151542 8 229 4.8 11.3 0.00 0.18 0.18 79 1011.8
20260508151020 7 0 3.2 12.9 0.00 0.18 0.18 80 1011.8
20260508150526 7 264 4.8 14.5 0.00 0.18 0.18 80 1011.7
20260508150041 7 229 4.8 14.5 0.00 0.18 0.18 81 1011.7
20260508145523 6 261 4.8 12.9 0.00 0.18 0.18 82 1011.9
20260508145024 6 257 6.4 16.1 0.00 0.18 0.18 81 1011.7
20260508144540 6 209 8.0 16.1 0.00 0.18 0.18 83 1011.8
20260508144023 6 229 8.0 14.5 0.00 0.18 0.18 84 1011.8
20260508143523 6 220 8.0 16.1 0.03 0.18 0.18 85 1011.8
20260508143042 6 232 8.0 16.1 0.03 0.18 0.18 86 1011.8
20260508142523 6 250 6.4 12.9 0.05 0.18 0.18 85 1011.8
20260508142023 6 205 4.8 8.0 0.05 0.18 0.18 86 1011.9
20260508141552 5 196 4.8 8.0 0.05 0.18 0.18 85 1011.9
20260508141022 5 0 0.0 4.8 0.05 0.18 0.18 85 1011.8
20260508140523 5 250 1.6 4.8 0.05 0.18 0.18 84 1011.8
20260508140052 5 250 3.2 4.8 0.05 0.18 0.18 84 1011.9
20260508135524 5 298 0.0 3.2 0.05 0.18 0.18 85 1011.9
20260508135022 5 299 0.0 8.0 0.05 0.18 0.18 85 1011.9
20260508134541 5 0 0.0 8.0 0.05 0.18 0.18 85 1011.8
20260508134023 5 311 3.2 12.9 0.05 0.18 0.18 84 1011.9
20260508133523 5 297 6.4 19.3 0.03 0.15 0.15 85 1011.8
20260508133041 5 234 11.3 19.3 0.03 0.15 0.15 87 1011.8
20260508132523 6 216 4.8 9.7 0.00 0.13 0.13 89 1011.6